<?xml version="1.0" encoding="UTF-8" standalone="no" ?>
<gpx xmlns="http://www.topografix.com/GPX/1/1" xmlns:xsi="http://www.w3.org/2001/XMLSchema-instance" xsi:schemaLocation="http://www.topografix.com/GPX/1/1 http://www.topografix.com/GPX/1/1/gpx.xsd" version="1.1" creator="VisuGPX - https://www.visugpx.com">
  <metadata>
    <name>Boucle vtt N°8 Crest</name>
    <desc><![CDATA[Boucle vtt labélisée au départ de Crest en rive droite de la Drôme jusqu\'aux contreforts du Vercors.]]></desc>
  </metadata>
  <trk>
    <name><![CDATA[CREST N8 Noir 42kms-1300m-5H30-MNT]]></name>
    <trkseg>
      <trkpt lat="44.73012" lon="5.01626">
        <ele>183</ele>
        <time>2008-09-27T19:24:31Z</time>
      </trkpt>
      <trkpt lat="44.72985" lon="5.01654">
        <ele>183</ele>
        <time>2008-09-27T19:24:31Z</time>
      </trkpt>
      <trkpt lat="44.72899" lon="5.01725">
        <ele>183</ele>
        <time>2008-09-27T19:24:31Z</time>
      </trkpt>
      <trkpt lat="44.729" lon="5.01724">
        <ele>183</ele>
        <time>2008-09-27T19:24:31Z</time>
      </trkpt>
      <trkpt lat="44.72888" lon="5.01735">
        <ele>183</ele>
        <time>2008-09-27T19:24:31Z</time>
      </trkpt>
      <trkpt lat="44.72872" lon="5.0175">
        <ele>183</ele>
        <time>2008-09-27T19:24:31Z</time>
      </trkpt>
      <trkpt lat="44.7285" lon="5.0177">
        <ele>183</ele>
        <time>2008-09-27T19:24:31Z</time>
      </trkpt>
      <trkpt lat="44.72836" lon="5.01783">
        <ele>184</ele>
        <time>2008-09-27T19:24:31Z</time>
      </trkpt>
      <trkpt lat="44.72828" lon="5.01793">
        <ele>184</ele>
        <time>2008-09-27T19:24:31Z</time>
      </trkpt>
      <trkpt lat="44.72821" lon="5.01803">
        <ele>184</ele>
        <time>2008-09-27T19:24:31Z</time>
      </trkpt>
      <trkpt lat="44.72815" lon="5.0181">
        <ele>184</ele>
        <time>2008-09-27T19:24:31Z</time>
      </trkpt>
      <trkpt lat="44.72809" lon="5.01823">
        <ele>184</ele>
        <time>2008-09-27T19:24:31Z</time>
      </trkpt>
      <trkpt lat="44.72805" lon="5.01833">
        <ele>184</ele>
        <time>2008-09-27T19:24:31Z</time>
      </trkpt>
      <trkpt lat="44.72804" lon="5.01836">
        <ele>184</ele>
        <time>2008-09-27T19:24:31Z</time>
      </trkpt>
      <trkpt lat="44.728" lon="5.0185">
        <ele>184</ele>
        <time>2008-09-27T19:24:31Z</time>
      </trkpt>
      <trkpt lat="44.72774" lon="5.02004">
        <ele>185</ele>
        <time>2008-09-27T19:24:31Z</time>
      </trkpt>
      <trkpt lat="44.72748" lon="5.02139">
        <ele>184</ele>
        <time>2008-09-27T19:24:31Z</time>
      </trkpt>
      <trkpt lat="44.72745" lon="5.02155">
        <ele>184</ele>
        <time>2008-09-27T19:24:31Z</time>
      </trkpt>
      <trkpt lat="44.72744" lon="5.02158">
        <ele>184</ele>
        <time>2008-09-27T19:24:31Z</time>
      </trkpt>
      <trkpt lat="44.72735" lon="5.02205">
        <ele>184</ele>
        <time>2008-09-27T19:24:31Z</time>
      </trkpt>
      <trkpt lat="44.72731" lon="5.02234">
        <ele>183</ele>
        <time>2008-09-27T19:24:31Z</time>
      </trkpt>
      <trkpt lat="44.7273" lon="5.02242">
        <ele>183</ele>
        <time>2008-09-27T19:24:31Z</time>
      </trkpt>
      <trkpt lat="44.72725" lon="5.0228">
        <ele>183</ele>
        <time>2008-09-27T19:24:31Z</time>
      </trkpt>
      <trkpt lat="44.72724" lon="5.02287">
        <ele>183</ele>
        <time>2008-09-27T19:24:31Z</time>
      </trkpt>
      <trkpt lat="44.7272" lon="5.0231">
        <ele>182</ele>
        <time>2008-09-27T19:24:31Z</time>
      </trkpt>
      <trkpt lat="44.72717" lon="5.02327">
        <ele>182</ele>
        <time>2008-09-27T19:24:31Z</time>
      </trkpt>
      <trkpt lat="44.7271" lon="5.02367">
        <ele>182</ele>
        <time>2008-09-27T19:24:31Z</time>
      </trkpt>
      <trkpt lat="44.72705" lon="5.02403">
        <ele>183</ele>
        <time>2008-09-27T19:24:31Z</time>
      </trkpt>
      <trkpt lat="44.72703" lon="5.02415">
        <ele>183</ele>
        <time>2008-09-27T19:24:31Z</time>
      </trkpt>
      <trkpt lat="44.72701" lon="5.02433">
        <ele>183</ele>
        <time>2008-09-27T19:24:31Z</time>
      </trkpt>
      <trkpt lat="44.72698" lon="5.02455">
        <ele>183</ele>
        <time>2008-09-27T19:24:31Z</time>
      </trkpt>
      <trkpt lat="44.72695" lon="5.02477">
        <ele>184</ele>
        <time>2008-09-27T19:24:31Z</time>
      </trkpt>
      <trkpt lat="44.72689" lon="5.02507">
        <ele>184</ele>
        <time>2008-09-27T19:24:31Z</time>
      </trkpt>
      <trkpt lat="44.72686" lon="5.02538">
        <ele>184</ele>
        <time>2008-09-27T19:24:31Z</time>
      </trkpt>
      <trkpt lat="44.72685" lon="5.0255">
        <ele>184</ele>
        <time>2008-09-27T19:24:31Z</time>
      </trkpt>
      <trkpt lat="44.72682" lon="5.02575">
        <ele>184</ele>
        <time>2008-09-27T19:24:31Z</time>
      </trkpt>
      <trkpt lat="44.72679" lon="5.02595">
        <ele>184</ele>
        <time>2008-09-27T19:24:31Z</time>
      </trkpt>
      <trkpt lat="44.72675" lon="5.02618">
        <ele>184</ele>
        <time>2008-09-27T19:24:31Z</time>
      </trkpt>
      <trkpt lat="44.72674" lon="5.02628">
        <ele>184</ele>
        <time>2008-09-27T19:24:31Z</time>
      </trkpt>
      <trkpt lat="44.72673" lon="5.02635">
        <ele>184</ele>
        <time>2008-09-27T19:24:31Z</time>
      </trkpt>
      <trkpt lat="44.72675" lon="5.02642">
        <ele>184</ele>
        <time>2008-09-27T19:24:31Z</time>
      </trkpt>
      <trkpt lat="44.72678" lon="5.02651">
        <ele>184</ele>
        <time>2008-09-27T19:24:31Z</time>
      </trkpt>
      <trkpt lat="44.7271" lon="5.02702">
        <ele>185</ele>
        <time>2008-09-27T19:24:31Z</time>
      </trkpt>
      <trkpt lat="44.7281" lon="5.02877">
        <ele>188</ele>
        <time>2008-09-27T19:24:31Z</time>
      </trkpt>
      <trkpt lat="44.72864" lon="5.02972">
        <ele>189</ele>
        <time>2008-09-27T19:24:31Z</time>
      </trkpt>
      <trkpt lat="44.72892" lon="5.03191">
        <ele>195</ele>
        <time>2008-09-27T19:24:31Z</time>
      </trkpt>
      <trkpt lat="44.72915" lon="5.03447">
        <ele>209</ele>
        <time>2008-09-27T19:24:31Z</time>
      </trkpt>
      <trkpt lat="44.72844" lon="5.03772">
        <ele>220</ele>
        <time>2008-09-27T19:24:31Z</time>
      </trkpt>
      <trkpt lat="44.7284" lon="5.0392">
        <ele>219</ele>
        <time>2008-09-27T19:24:31Z</time>
      </trkpt>
      <trkpt lat="44.72866" lon="5.03982">
        <ele>219</ele>
        <time>2008-09-27T19:24:31Z</time>
      </trkpt>
      <trkpt lat="44.72935" lon="5.04086">
        <ele>216</ele>
        <time>2008-09-27T19:24:31Z</time>
      </trkpt>
      <trkpt lat="44.73034" lon="5.04103">
        <ele>215</ele>
        <time>2008-09-27T19:24:31Z</time>
      </trkpt>
      <trkpt lat="44.73198" lon="5.04206">
        <ele>226</ele>
        <time>2008-09-27T19:24:31Z</time>
      </trkpt>
      <trkpt lat="44.73269" lon="5.04332">
        <ele>237</ele>
        <time>2008-09-27T19:24:31Z</time>
      </trkpt>
      <trkpt lat="44.73304" lon="5.04574">
        <ele>231</ele>
        <time>2008-09-27T19:24:31Z</time>
      </trkpt>
      <trkpt lat="44.7333" lon="5.04679">
        <ele>234</ele>
        <time>2008-09-27T19:24:31Z</time>
      </trkpt>
      <trkpt lat="44.73374" lon="5.04719">
        <ele>240</ele>
        <time>2008-09-27T19:24:31Z</time>
      </trkpt>
      <trkpt lat="44.73469" lon="5.04872">
        <ele>240</ele>
        <time>2008-09-27T19:24:31Z</time>
      </trkpt>
      <trkpt lat="44.73531" lon="5.05024">
        <ele>246</ele>
        <time>2008-09-27T19:24:31Z</time>
      </trkpt>
      <trkpt lat="44.73562" lon="5.05221">
        <ele>243</ele>
        <time>2008-09-27T19:24:31Z</time>
      </trkpt>
      <trkpt lat="44.73625" lon="5.053">
        <ele>238</ele>
        <time>2008-09-27T19:24:31Z</time>
      </trkpt>
      <trkpt lat="44.73713" lon="5.0538">
        <ele>249</ele>
        <time>2008-09-27T19:24:31Z</time>
      </trkpt>
      <trkpt lat="44.7391" lon="5.05522">
        <ele>265</ele>
        <time>2008-09-27T19:24:31Z</time>
      </trkpt>
      <trkpt lat="44.74029" lon="5.05629">
        <ele>260</ele>
        <time>2008-09-27T19:24:31Z</time>
      </trkpt>
      <trkpt lat="44.74101" lon="5.05626">
        <ele>266</ele>
        <time>2008-09-27T19:24:31Z</time>
      </trkpt>
      <trkpt lat="44.74129" lon="5.0569">
        <ele>266</ele>
        <time>2008-09-27T19:24:31Z</time>
      </trkpt>
      <trkpt lat="44.74149" lon="5.05783">
        <ele>260</ele>
        <time>2008-09-27T19:24:31Z</time>
      </trkpt>
      <trkpt lat="44.74154" lon="5.0584">
        <ele>265</ele>
        <time>2008-09-27T19:24:31Z</time>
      </trkpt>
      <trkpt lat="44.7424" lon="5.0591">
        <ele>269</ele>
        <time>2008-09-27T19:24:31Z</time>
      </trkpt>
      <trkpt lat="44.74355" lon="5.05992">
        <ele>273</ele>
        <time>2008-09-27T19:24:31Z</time>
      </trkpt>
      <trkpt lat="44.74405" lon="5.06076">
        <ele>280</ele>
        <time>2008-09-27T19:24:31Z</time>
      </trkpt>
      <trkpt lat="44.74463" lon="5.06107">
        <ele>282</ele>
        <time>2008-09-27T19:24:31Z</time>
      </trkpt>
      <trkpt lat="44.7456" lon="5.06179">
        <ele>291</ele>
        <time>2008-09-27T19:24:31Z</time>
      </trkpt>
      <trkpt lat="44.74715" lon="5.06284">
        <ele>307</ele>
        <time>2008-09-27T19:24:31Z</time>
      </trkpt>
      <trkpt lat="44.74853" lon="5.06341">
        <ele>320</ele>
        <time>2008-09-27T19:24:31Z</time>
      </trkpt>
      <trkpt lat="44.74953" lon="5.06308">
        <ele>322</ele>
        <time>2008-09-27T19:24:31Z</time>
      </trkpt>
      <trkpt lat="44.74922" lon="5.06354">
        <ele>329</ele>
        <time>2008-09-27T19:24:31Z</time>
      </trkpt>
      <trkpt lat="44.74839" lon="5.06429">
        <ele>331</ele>
        <time>2008-09-27T19:24:31Z</time>
      </trkpt>
      <trkpt lat="44.74871" lon="5.06519">
        <ele>335</ele>
        <time>2008-09-27T19:24:31Z</time>
      </trkpt>
      <trkpt lat="44.74952" lon="5.06614">
        <ele>331</ele>
        <time>2008-09-27T19:24:31Z</time>
      </trkpt>
      <trkpt lat="44.74981" lon="5.06625">
        <ele>330</ele>
        <time>2008-09-27T19:24:31Z</time>
      </trkpt>
      <trkpt lat="44.75075" lon="5.06639">
        <ele>328</ele>
        <time>2008-09-27T19:24:31Z</time>
      </trkpt>
      <trkpt lat="44.75095" lon="5.06729">
        <ele>324</ele>
        <time>2008-09-27T19:24:31Z</time>
      </trkpt>
      <trkpt lat="44.75105" lon="5.06792">
        <ele>323</ele>
        <time>2008-09-27T19:24:31Z</time>
      </trkpt>
      <trkpt lat="44.75216" lon="5.06763">
        <ele>323</ele>
        <time>2008-09-27T19:24:31Z</time>
      </trkpt>
      <trkpt lat="44.75286" lon="5.06741">
        <ele>326</ele>
        <time>2008-09-27T19:24:31Z</time>
      </trkpt>
      <trkpt lat="44.75304" lon="5.06761">
        <ele>326</ele>
        <time>2008-09-27T19:24:31Z</time>
      </trkpt>
      <trkpt lat="44.75275" lon="5.06823">
        <ele>323</ele>
        <time>2008-09-27T19:24:31Z</time>
      </trkpt>
      <trkpt lat="44.75175" lon="5.06976">
        <ele>312</ele>
        <time>2008-09-27T19:24:31Z</time>
      </trkpt>
      <trkpt lat="44.75207" lon="5.07025">
        <ele>312</ele>
        <time>2008-09-27T19:24:31Z</time>
      </trkpt>
      <trkpt lat="44.75325" lon="5.07097">
        <ele>315</ele>
        <time>2008-09-27T19:24:31Z</time>
      </trkpt>
      <trkpt lat="44.75519" lon="5.07315">
        <ele>302</ele>
        <time>2008-09-27T19:24:31Z</time>
      </trkpt>
      <trkpt lat="44.75618" lon="5.07408">
        <ele>299</ele>
        <time>2008-09-27T19:24:31Z</time>
      </trkpt>
      <trkpt lat="44.75811" lon="5.07547">
        <ele>304</ele>
        <time>2008-09-27T19:24:31Z</time>
      </trkpt>
      <trkpt lat="44.75862" lon="5.0765">
        <ele>301</ele>
        <time>2008-09-27T19:24:31Z</time>
      </trkpt>
      <trkpt lat="44.75855" lon="5.07675">
        <ele>301</ele>
        <time>2008-09-27T19:24:31Z</time>
      </trkpt>
      <trkpt lat="44.75821" lon="5.07655">
        <ele>300</ele>
        <time>2008-09-27T19:24:31Z</time>
      </trkpt>
      <trkpt lat="44.75795" lon="5.07732">
        <ele>305</ele>
        <time>2008-09-27T19:24:31Z</time>
      </trkpt>
      <trkpt lat="44.75803" lon="5.07783">
        <ele>311</ele>
        <time>2008-09-27T19:24:31Z</time>
      </trkpt>
      <trkpt lat="44.75841" lon="5.07861">
        <ele>321</ele>
        <time>2008-09-27T19:24:31Z</time>
      </trkpt>
      <trkpt lat="44.75889" lon="5.07923">
        <ele>323</ele>
        <time>2008-09-27T19:24:31Z</time>
      </trkpt>
      <trkpt lat="44.75927" lon="5.07947">
        <ele>320</ele>
        <time>2008-09-27T19:24:31Z</time>
      </trkpt>
      <trkpt lat="44.7588" lon="5.08011">
        <ele>328</ele>
        <time>2008-09-27T19:24:31Z</time>
      </trkpt>
      <trkpt lat="44.75847" lon="5.08079">
        <ele>335</ele>
        <time>2008-09-27T19:24:31Z</time>
      </trkpt>
      <trkpt lat="44.75975" lon="5.08088">
        <ele>335</ele>
        <time>2008-09-27T19:24:31Z</time>
      </trkpt>
      <trkpt lat="44.76017" lon="5.08135">
        <ele>342</ele>
        <time>2008-09-27T19:24:31Z</time>
      </trkpt>
      <trkpt lat="44.76073" lon="5.08232">
        <ele>354</ele>
        <time>2008-09-27T19:24:31Z</time>
      </trkpt>
      <trkpt lat="44.76108" lon="5.08335">
        <ele>370</ele>
        <time>2008-09-27T19:24:31Z</time>
      </trkpt>
      <trkpt lat="44.76149" lon="5.08432">
        <ele>375</ele>
        <time>2008-09-27T19:24:31Z</time>
      </trkpt>
      <trkpt lat="44.76135" lon="5.08513">
        <ele>383</ele>
        <time>2008-09-27T19:24:31Z</time>
      </trkpt>
      <trkpt lat="44.76128" lon="5.08614">
        <ele>380</ele>
        <time>2008-09-27T19:24:31Z</time>
      </trkpt>
      <trkpt lat="44.76094" lon="5.0872">
        <ele>376</ele>
        <time>2008-09-27T19:24:31Z</time>
      </trkpt>
      <trkpt lat="44.76038" lon="5.08793">
        <ele>378</ele>
        <time>2008-09-27T19:24:31Z</time>
      </trkpt>
      <trkpt lat="44.76015" lon="5.08817">
        <ele>379</ele>
        <time>2008-09-27T19:24:31Z</time>
      </trkpt>
      <trkpt lat="44.76034" lon="5.08871">
        <ele>370</ele>
        <time>2008-09-27T19:24:31Z</time>
      </trkpt>
      <trkpt lat="44.76071" lon="5.08914">
        <ele>367</ele>
        <time>2008-09-27T19:24:31Z</time>
      </trkpt>
      <trkpt lat="44.761" lon="5.08922">
        <ele>369</ele>
        <time>2008-09-27T19:24:31Z</time>
      </trkpt>
      <trkpt lat="44.76126" lon="5.09065">
        <ele>375</ele>
        <time>2008-09-27T19:24:31Z</time>
      </trkpt>
      <trkpt lat="44.76126" lon="5.09141">
        <ele>382</ele>
        <time>2008-09-27T19:24:31Z</time>
      </trkpt>
      <trkpt lat="44.76086" lon="5.0924">
        <ele>373</ele>
        <time>2008-09-27T19:24:31Z</time>
      </trkpt>
      <trkpt lat="44.76103" lon="5.09266">
        <ele>383</ele>
        <time>2008-09-27T19:24:31Z</time>
      </trkpt>
      <trkpt lat="44.76046" lon="5.09295">
        <ele>380</ele>
        <time>2008-09-27T19:24:31Z</time>
      </trkpt>
      <trkpt lat="44.76086" lon="5.09313">
        <ele>387</ele>
        <time>2008-09-27T19:24:31Z</time>
      </trkpt>
      <trkpt lat="44.76083" lon="5.09347">
        <ele>397</ele>
        <time>2008-09-27T19:24:31Z</time>
      </trkpt>
      <trkpt lat="44.76018" lon="5.09411">
        <ele>407</ele>
        <time>2008-09-27T19:24:31Z</time>
      </trkpt>
      <trkpt lat="44.75985" lon="5.09482">
        <ele>416</ele>
        <time>2008-09-27T19:24:31Z</time>
      </trkpt>
      <trkpt lat="44.75966" lon="5.09525">
        <ele>420</ele>
        <time>2008-09-27T19:24:31Z</time>
      </trkpt>
      <trkpt lat="44.76019" lon="5.09493">
        <ele>425</ele>
        <time>2008-09-27T19:24:31Z</time>
      </trkpt>
      <trkpt lat="44.76002" lon="5.09539">
        <ele>432</ele>
        <time>2008-09-27T19:24:31Z</time>
      </trkpt>
      <trkpt lat="44.75935" lon="5.09602">
        <ele>431</ele>
        <time>2008-09-27T19:24:31Z</time>
      </trkpt>
      <trkpt lat="44.75856" lon="5.09696">
        <ele>426</ele>
        <time>2008-09-27T19:24:31Z</time>
      </trkpt>
      <trkpt lat="44.75803" lon="5.09741">
        <ele>418</ele>
        <time>2008-09-27T19:24:31Z</time>
      </trkpt>
      <trkpt lat="44.75786" lon="5.09781">
        <ele>420</ele>
        <time>2008-09-27T19:24:31Z</time>
      </trkpt>
      <trkpt lat="44.75736" lon="5.09807">
        <ele>408</ele>
        <time>2008-09-27T19:24:31Z</time>
      </trkpt>
      <trkpt lat="44.75722" lon="5.09847">
        <ele>408</ele>
        <time>2008-09-27T19:24:31Z</time>
      </trkpt>
      <trkpt lat="44.75754" lon="5.09833">
        <ele>415</ele>
        <time>2008-09-27T19:24:31Z</time>
      </trkpt>
      <trkpt lat="44.75807" lon="5.09858">
        <ele>429</ele>
        <time>2008-09-27T19:24:31Z</time>
      </trkpt>
      <trkpt lat="44.75891" lon="5.09831">
        <ele>444</ele>
        <time>2008-09-27T19:24:31Z</time>
      </trkpt>
      <trkpt lat="44.75968" lon="5.09806">
        <ele>454</ele>
        <time>2008-09-27T19:24:31Z</time>
      </trkpt>
      <trkpt lat="44.76047" lon="5.09788">
        <ele>459</ele>
        <time>2008-09-27T19:24:31Z</time>
      </trkpt>
      <trkpt lat="44.76148" lon="5.09809">
        <ele>466</ele>
        <time>2008-09-27T19:24:31Z</time>
      </trkpt>
      <trkpt lat="44.76216" lon="5.09859">
        <ele>456</ele>
        <time>2008-09-27T19:24:31Z</time>
      </trkpt>
      <trkpt lat="44.76273" lon="5.09853">
        <ele>463</ele>
        <time>2008-09-27T19:24:31Z</time>
      </trkpt>
      <trkpt lat="44.76338" lon="5.09872">
        <ele>464</ele>
        <time>2008-09-27T19:24:31Z</time>
      </trkpt>
      <trkpt lat="44.76398" lon="5.0989">
        <ele>466</ele>
        <time>2008-09-27T19:24:31Z</time>
      </trkpt>
      <trkpt lat="44.76475" lon="5.09888">
        <ele>476</ele>
        <time>2008-09-27T19:24:31Z</time>
      </trkpt>
      <trkpt lat="44.76553" lon="5.09895">
        <ele>484</ele>
        <time>2008-09-27T19:24:31Z</time>
      </trkpt>
      <trkpt lat="44.76634" lon="5.0988">
        <ele>499</ele>
        <time>2008-09-27T19:24:31Z</time>
      </trkpt>
      <trkpt lat="44.76719" lon="5.09846">
        <ele>520</ele>
        <time>2008-09-27T19:24:31Z</time>
      </trkpt>
      <trkpt lat="44.76858" lon="5.09859">
        <ele>528</ele>
        <time>2008-09-27T19:24:31Z</time>
      </trkpt>
      <trkpt lat="44.76953" lon="5.09915">
        <ele>533</ele>
        <time>2008-09-27T19:24:31Z</time>
      </trkpt>
      <trkpt lat="44.77069" lon="5.09974">
        <ele>548</ele>
        <time>2008-09-27T19:24:31Z</time>
      </trkpt>
      <trkpt lat="44.77121" lon="5.09954">
        <ele>556</ele>
        <time>2008-09-27T19:24:31Z</time>
      </trkpt>
      <trkpt lat="44.77196" lon="5.0992">
        <ele>550</ele>
        <time>2008-09-27T19:24:31Z</time>
      </trkpt>
      <trkpt lat="44.77345" lon="5.09893">
        <ele>573</ele>
        <time>2008-09-27T19:24:31Z</time>
      </trkpt>
      <trkpt lat="44.7746" lon="5.09873">
        <ele>580</ele>
        <time>2008-09-27T19:24:31Z</time>
      </trkpt>
      <trkpt lat="44.77551" lon="5.09834">
        <ele>588</ele>
        <time>2008-09-27T19:24:31Z</time>
      </trkpt>
      <trkpt lat="44.77585" lon="5.09829">
        <ele>592</ele>
        <time>2008-09-27T19:24:31Z</time>
      </trkpt>
      <trkpt lat="44.77732" lon="5.09798">
        <ele>607</ele>
        <time>2008-09-27T19:24:31Z</time>
      </trkpt>
      <trkpt lat="44.77878" lon="5.09821">
        <ele>621</ele>
        <time>2008-09-27T19:24:31Z</time>
      </trkpt>
      <trkpt lat="44.77998" lon="5.09868">
        <ele>634</ele>
        <time>2008-09-27T19:24:31Z</time>
      </trkpt>
      <trkpt lat="44.78106" lon="5.09877">
        <ele>638</ele>
        <time>2008-09-27T19:24:31Z</time>
      </trkpt>
      <trkpt lat="44.78123" lon="5.099">
        <ele>637</ele>
        <time>2008-09-27T19:24:31Z</time>
      </trkpt>
      <trkpt lat="44.78114" lon="5.09934">
        <ele>641</ele>
        <time>2008-09-27T19:24:31Z</time>
      </trkpt>
      <trkpt lat="44.78117" lon="5.09978">
        <ele>640</ele>
        <time>2008-09-27T19:24:31Z</time>
      </trkpt>
      <trkpt lat="44.78072" lon="5.09986">
        <ele>645</ele>
        <time>2008-09-27T19:24:31Z</time>
      </trkpt>
      <trkpt lat="44.78025" lon="5.1004">
        <ele>651</ele>
        <time>2008-09-27T19:24:31Z</time>
      </trkpt>
      <trkpt lat="44.77978" lon="5.1005">
        <ele>658</ele>
        <time>2008-09-27T19:24:31Z</time>
      </trkpt>
      <trkpt lat="44.7793" lon="5.1008">
        <ele>670</ele>
        <time>2008-09-27T19:24:31Z</time>
      </trkpt>
      <trkpt lat="44.77895" lon="5.10132">
        <ele>675</ele>
        <time>2008-09-27T19:24:31Z</time>
      </trkpt>
      <trkpt lat="44.77872" lon="5.10153">
        <ele>674</ele>
        <time>2008-09-27T19:24:31Z</time>
      </trkpt>
      <trkpt lat="44.77852" lon="5.10155">
        <ele>678</ele>
        <time>2008-09-27T19:24:31Z</time>
      </trkpt>
      <trkpt lat="44.77879" lon="5.10125">
        <ele>677</ele>
        <time>2008-09-27T19:24:31Z</time>
      </trkpt>
      <trkpt lat="44.77889" lon="5.10106">
        <ele>676</ele>
        <time>2008-09-27T19:24:31Z</time>
      </trkpt>
      <trkpt lat="44.77809" lon="5.10074">
        <ele>683</ele>
        <time>2008-09-27T19:24:31Z</time>
      </trkpt>
      <trkpt lat="44.7773" lon="5.10086">
        <ele>688</ele>
        <time>2008-09-27T19:24:31Z</time>
      </trkpt>
      <trkpt lat="44.7765" lon="5.10101">
        <ele>677</ele>
        <time>2008-09-27T19:24:31Z</time>
      </trkpt>
      <trkpt lat="44.77582" lon="5.10123">
        <ele>669</ele>
        <time>2008-09-27T19:24:31Z</time>
      </trkpt>
      <trkpt lat="44.77505" lon="5.10166">
        <ele>669</ele>
        <time>2008-09-27T19:24:31Z</time>
      </trkpt>
      <trkpt lat="44.77461" lon="5.10208">
        <ele>674</ele>
        <time>2008-09-27T19:24:31Z</time>
      </trkpt>
      <trkpt lat="44.77414" lon="5.10196">
        <ele>664</ele>
        <time>2008-09-27T19:24:31Z</time>
      </trkpt>
      <trkpt lat="44.77315" lon="5.10188">
        <ele>651</ele>
        <time>2008-09-27T19:24:31Z</time>
      </trkpt>
      <trkpt lat="44.77223" lon="5.10199">
        <ele>637</ele>
        <time>2008-09-27T19:24:31Z</time>
      </trkpt>
      <trkpt lat="44.77124" lon="5.10201">
        <ele>632</ele>
        <time>2008-09-27T19:24:31Z</time>
      </trkpt>
      <trkpt lat="44.77018" lon="5.10186">
        <ele>621</ele>
        <time>2008-09-27T19:24:31Z</time>
      </trkpt>
      <trkpt lat="44.76954" lon="5.10164">
        <ele>613</ele>
        <time>2008-09-27T19:24:31Z</time>
      </trkpt>
      <trkpt lat="44.7692" lon="5.10156">
        <ele>605</ele>
        <time>2008-09-27T19:24:31Z</time>
      </trkpt>
      <trkpt lat="44.76875" lon="5.10148">
        <ele>605</ele>
        <time>2008-09-27T19:24:31Z</time>
      </trkpt>
      <trkpt lat="44.76842" lon="5.10108">
        <ele>594</ele>
        <time>2008-09-27T19:24:31Z</time>
      </trkpt>
      <trkpt lat="44.7677" lon="5.10139">
        <ele>594</ele>
        <time>2008-09-27T19:24:31Z</time>
      </trkpt>
      <trkpt lat="44.76684" lon="5.10157">
        <ele>583</ele>
        <time>2008-09-27T19:24:31Z</time>
      </trkpt>
      <trkpt lat="44.7656" lon="5.10173">
        <ele>569</ele>
        <time>2008-09-27T19:24:31Z</time>
      </trkpt>
      <trkpt lat="44.76508" lon="5.10183">
        <ele>561</ele>
        <time>2008-09-27T19:24:31Z</time>
      </trkpt>
      <trkpt lat="44.7649" lon="5.10242">
        <ele>553</ele>
        <time>2008-09-27T19:24:31Z</time>
      </trkpt>
      <trkpt lat="44.76513" lon="5.10322">
        <ele>537</ele>
        <time>2008-09-27T19:24:31Z</time>
      </trkpt>
      <trkpt lat="44.7654" lon="5.104">
        <ele>524</ele>
        <time>2008-09-27T19:24:31Z</time>
      </trkpt>
      <trkpt lat="44.76549" lon="5.10431">
        <ele>524</ele>
        <time>2008-09-27T19:24:31Z</time>
      </trkpt>
      <trkpt lat="44.76525" lon="5.10475">
        <ele>507</ele>
        <time>2008-09-27T19:24:31Z</time>
      </trkpt>
      <trkpt lat="44.76538" lon="5.10507">
        <ele>505</ele>
        <time>2008-09-27T19:24:31Z</time>
      </trkpt>
      <trkpt lat="44.76515" lon="5.10502">
        <ele>497</ele>
        <time>2008-09-27T19:24:31Z</time>
      </trkpt>
      <trkpt lat="44.76532" lon="5.10538">
        <ele>495</ele>
        <time>2008-09-27T19:24:31Z</time>
      </trkpt>
      <trkpt lat="44.76567" lon="5.10593">
        <ele>493</ele>
        <time>2008-09-27T19:24:31Z</time>
      </trkpt>
      <trkpt lat="44.7659" lon="5.10655">
        <ele>491</ele>
        <time>2008-09-27T19:24:31Z</time>
      </trkpt>
      <trkpt lat="44.76582" lon="5.10727">
        <ele>485</ele>
        <time>2008-09-27T19:24:31Z</time>
      </trkpt>
      <trkpt lat="44.76583" lon="5.10777">
        <ele>480</ele>
        <time>2008-09-27T19:24:31Z</time>
      </trkpt>
      <trkpt lat="44.76598" lon="5.10803">
        <ele>479</ele>
        <time>2008-09-27T19:24:31Z</time>
      </trkpt>
      <trkpt lat="44.76651" lon="5.10844">
        <ele>480</ele>
        <time>2008-09-27T19:24:31Z</time>
      </trkpt>
      <trkpt lat="44.76689" lon="5.10862">
        <ele>481</ele>
        <time>2008-09-27T19:24:31Z</time>
      </trkpt>
      <trkpt lat="44.76763" lon="5.10846">
        <ele>493</ele>
        <time>2008-09-27T19:24:31Z</time>
      </trkpt>
      <trkpt lat="44.7686" lon="5.10854">
        <ele>498</ele>
        <time>2008-09-27T19:24:31Z</time>
      </trkpt>
      <trkpt lat="44.76921" lon="5.10908">
        <ele>496</ele>
        <time>2008-09-27T19:24:31Z</time>
      </trkpt>
      <trkpt lat="44.77024" lon="5.10954">
        <ele>497</ele>
        <time>2008-09-27T19:24:31Z</time>
      </trkpt>
      <trkpt lat="44.77122" lon="5.10972">
        <ele>493</ele>
        <time>2008-09-27T19:24:31Z</time>
      </trkpt>
      <trkpt lat="44.7711" lon="5.11031">
        <ele>487</ele>
        <time>2008-09-27T19:24:31Z</time>
      </trkpt>
      <trkpt lat="44.77059" lon="5.1106">
        <ele>484</ele>
        <time>2008-09-27T19:24:31Z</time>
      </trkpt>
      <trkpt lat="44.77029" lon="5.11103">
        <ele>478</ele>
        <time>2008-09-27T19:24:31Z</time>
      </trkpt>
      <trkpt lat="44.7705" lon="5.11167">
        <ele>472</ele>
        <time>2008-09-27T19:24:31Z</time>
      </trkpt>
      <trkpt lat="44.77076" lon="5.11209">
        <ele>466</ele>
        <time>2008-09-27T19:24:31Z</time>
      </trkpt>
      <trkpt lat="44.77074" lon="5.11269">
        <ele>455</ele>
        <time>2008-09-27T19:24:31Z</time>
      </trkpt>
      <trkpt lat="44.77059" lon="5.11347">
        <ele>443</ele>
        <time>2008-09-27T19:24:31Z</time>
      </trkpt>
      <trkpt lat="44.77106" lon="5.11353">
        <ele>445</ele>
        <time>2008-09-27T19:24:31Z</time>
      </trkpt>
      <trkpt lat="44.77133" lon="5.1137">
        <ele>442</ele>
        <time>2008-09-27T19:24:31Z</time>
      </trkpt>
      <trkpt lat="44.77136" lon="5.11414">
        <ele>442</ele>
        <time>2008-09-27T19:24:31Z</time>
      </trkpt>
      <trkpt lat="44.77109" lon="5.11505">
        <ele>446</ele>
        <time>2008-09-27T19:24:31Z</time>
      </trkpt>
      <trkpt lat="44.77075" lon="5.11595">
        <ele>440</ele>
        <time>2008-09-27T19:24:31Z</time>
      </trkpt>
      <trkpt lat="44.77054" lon="5.11647">
        <ele>434</ele>
        <time>2008-09-27T19:24:31Z</time>
      </trkpt>
      <trkpt lat="44.77053" lon="5.11758">
        <ele>423</ele>
        <time>2008-09-27T19:24:31Z</time>
      </trkpt>
      <trkpt lat="44.77062" lon="5.11834">
        <ele>412</ele>
        <time>2008-09-27T19:24:31Z</time>
      </trkpt>
      <trkpt lat="44.77051" lon="5.11909">
        <ele>402</ele>
        <time>2008-09-27T19:24:31Z</time>
      </trkpt>
      <trkpt lat="44.76994" lon="5.11944">
        <ele>397</ele>
        <time>2008-09-27T19:24:31Z</time>
      </trkpt>
      <trkpt lat="44.76943" lon="5.11942">
        <ele>395</ele>
        <time>2008-09-27T19:24:31Z</time>
      </trkpt>
      <trkpt lat="44.76864" lon="5.11928">
        <ele>386</ele>
        <time>2008-09-27T19:24:31Z</time>
      </trkpt>
      <trkpt lat="44.76804" lon="5.11906">
        <ele>380</ele>
        <time>2008-09-27T19:24:31Z</time>
      </trkpt>
      <trkpt lat="44.76739" lon="5.11894">
        <ele>377</ele>
        <time>2008-09-27T19:24:31Z</time>
      </trkpt>
      <trkpt lat="44.76698" lon="5.11908">
        <ele>375</ele>
        <time>2008-09-27T19:24:31Z</time>
      </trkpt>
      <trkpt lat="44.76652" lon="5.11943">
        <ele>372</ele>
        <time>2008-09-27T19:24:31Z</time>
      </trkpt>
      <trkpt lat="44.76627" lon="5.11951">
        <ele>370</ele>
        <time>2008-09-27T19:24:31Z</time>
      </trkpt>
      <trkpt lat="44.7663" lon="5.11844">
        <ele>370</ele>
        <time>2008-09-27T19:24:31Z</time>
      </trkpt>
      <trkpt lat="44.76613" lon="5.11802">
        <ele>371</ele>
        <time>2008-09-27T19:24:31Z</time>
      </trkpt>
      <trkpt lat="44.76571" lon="5.11759">
        <ele>370</ele>
        <time>2008-09-27T19:24:31Z</time>
      </trkpt>
      <trkpt lat="44.76518" lon="5.1175">
        <ele>365</ele>
        <time>2008-09-27T19:24:31Z</time>
      </trkpt>
      <trkpt lat="44.76497" lon="5.11777">
        <ele>361</ele>
        <time>2008-09-27T19:24:31Z</time>
      </trkpt>
      <trkpt lat="44.76454" lon="5.11785">
        <ele>358</ele>
        <time>2008-09-27T19:24:31Z</time>
      </trkpt>
      <trkpt lat="44.76431" lon="5.11964">
        <ele>354</ele>
        <time>2008-09-27T19:24:31Z</time>
      </trkpt>
      <trkpt lat="44.76395" lon="5.11965">
        <ele>354</ele>
        <time>2008-09-27T19:24:31Z</time>
      </trkpt>
      <trkpt lat="44.76339" lon="5.11965">
        <ele>354</ele>
        <time>2008-09-27T19:24:31Z</time>
      </trkpt>
      <trkpt lat="44.76298" lon="5.11998">
        <ele>356</ele>
        <time>2008-09-27T19:24:31Z</time>
      </trkpt>
      <trkpt lat="44.76233" lon="5.12049">
        <ele>355</ele>
        <time>2008-09-27T19:24:31Z</time>
      </trkpt>
      <trkpt lat="44.76163" lon="5.12077">
        <ele>352</ele>
        <time>2008-09-27T19:24:31Z</time>
      </trkpt>
      <trkpt lat="44.76088" lon="5.12101">
        <ele>347</ele>
        <time>2008-09-27T19:24:31Z</time>
      </trkpt>
      <trkpt lat="44.76091" lon="5.12184">
        <ele>351</ele>
        <time>2008-09-27T19:24:31Z</time>
      </trkpt>
      <trkpt lat="44.76099" lon="5.12197">
        <ele>351</ele>
        <time>2008-09-27T19:24:31Z</time>
      </trkpt>
      <trkpt lat="44.76089" lon="5.12253">
        <ele>352</ele>
        <time>2008-09-27T19:24:31Z</time>
      </trkpt>
      <trkpt lat="44.76077" lon="5.12281">
        <ele>352</ele>
        <time>2008-09-27T19:24:31Z</time>
      </trkpt>
      <trkpt lat="44.76014" lon="5.12281">
        <ele>360</ele>
        <time>2008-09-27T19:24:31Z</time>
      </trkpt>
      <trkpt lat="44.7596" lon="5.12269">
        <ele>363</ele>
        <time>2008-09-27T19:24:31Z</time>
      </trkpt>
      <trkpt lat="44.75899" lon="5.123">
        <ele>366</ele>
        <time>2008-09-27T19:24:31Z</time>
      </trkpt>
      <trkpt lat="44.75806" lon="5.1233">
        <ele>373</ele>
        <time>2008-09-27T19:24:31Z</time>
      </trkpt>
      <trkpt lat="44.75719" lon="5.12361">
        <ele>384</ele>
        <time>2008-09-27T19:24:31Z</time>
      </trkpt>
      <trkpt lat="44.75585" lon="5.1243">
        <ele>404</ele>
        <time>2008-09-27T19:24:31Z</time>
      </trkpt>
      <trkpt lat="44.75516" lon="5.12468">
        <ele>402</ele>
        <time>2008-09-27T19:24:31Z</time>
      </trkpt>
      <trkpt lat="44.75437" lon="5.12495">
        <ele>406</ele>
        <time>2008-09-27T19:24:31Z</time>
      </trkpt>
      <trkpt lat="44.75374" lon="5.12498">
        <ele>410</ele>
        <time>2008-09-27T19:24:31Z</time>
      </trkpt>
      <trkpt lat="44.75338" lon="5.12506">
        <ele>410</ele>
        <time>2008-09-27T19:24:31Z</time>
      </trkpt>
      <trkpt lat="44.75333" lon="5.12531">
        <ele>411</ele>
        <time>2008-09-27T19:24:31Z</time>
      </trkpt>
      <trkpt lat="44.7535" lon="5.12545">
        <ele>413</ele>
        <time>2008-09-27T19:24:31Z</time>
      </trkpt>
      <trkpt lat="44.75353" lon="5.12538">
        <ele>413</ele>
        <time>2008-09-27T19:24:31Z</time>
      </trkpt>
      <trkpt lat="44.75342" lon="5.12525">
        <ele>411</ele>
        <time>2008-09-27T19:24:31Z</time>
      </trkpt>
      <trkpt lat="44.75322" lon="5.12512">
        <ele>409</ele>
        <time>2008-09-27T19:24:31Z</time>
      </trkpt>
      <trkpt lat="44.75266" lon="5.12499">
        <ele>404</ele>
        <time>2008-09-27T19:24:31Z</time>
      </trkpt>
      <trkpt lat="44.75188" lon="5.12464">
        <ele>398</ele>
        <time>2008-09-27T19:24:31Z</time>
      </trkpt>
      <trkpt lat="44.75086" lon="5.12408">
        <ele>374</ele>
        <time>2008-09-27T19:24:31Z</time>
      </trkpt>
      <trkpt lat="44.74933" lon="5.12312">
        <ele>365</ele>
        <time>2008-09-27T19:24:31Z</time>
      </trkpt>
      <trkpt lat="44.74812" lon="5.12215">
        <ele>368</ele>
        <time>2008-09-27T19:24:31Z</time>
      </trkpt>
      <trkpt lat="44.7477" lon="5.12194">
        <ele>368</ele>
        <time>2008-09-27T19:24:31Z</time>
      </trkpt>
      <trkpt lat="44.74731" lon="5.12217">
        <ele>364</ele>
        <time>2008-09-27T19:24:31Z</time>
      </trkpt>
      <trkpt lat="44.74704" lon="5.12219">
        <ele>364</ele>
        <time>2008-09-27T19:24:31Z</time>
      </trkpt>
      <trkpt lat="44.74666" lon="5.12204">
        <ele>365</ele>
        <time>2008-09-27T19:24:31Z</time>
      </trkpt>
      <trkpt lat="44.7461" lon="5.1211">
        <ele>360</ele>
        <time>2008-09-27T19:24:31Z</time>
      </trkpt>
      <trkpt lat="44.74557" lon="5.12041">
        <ele>355</ele>
        <time>2008-09-27T19:24:31Z</time>
      </trkpt>
      <trkpt lat="44.74501" lon="5.12051">
        <ele>353</ele>
        <time>2008-09-27T19:24:31Z</time>
      </trkpt>
      <trkpt lat="44.74475" lon="5.12005">
        <ele>353</ele>
        <time>2008-09-27T19:24:31Z</time>
      </trkpt>
      <trkpt lat="44.74429" lon="5.11975">
        <ele>351</ele>
        <time>2008-09-27T19:24:31Z</time>
      </trkpt>
      <trkpt lat="44.74342" lon="5.11936">
        <ele>349</ele>
        <time>2008-09-27T19:24:31Z</time>
      </trkpt>
      <trkpt lat="44.74271" lon="5.11901">
        <ele>347</ele>
        <time>2008-09-27T19:24:31Z</time>
      </trkpt>
      <trkpt lat="44.74143" lon="5.11803">
        <ele>350</ele>
        <time>2008-09-27T19:24:31Z</time>
      </trkpt>
      <trkpt lat="44.7408" lon="5.11721">
        <ele>350</ele>
        <time>2008-09-27T19:24:31Z</time>
      </trkpt>
      <trkpt lat="44.74058" lon="5.11675">
        <ele>347</ele>
        <time>2008-09-27T19:24:31Z</time>
      </trkpt>
      <trkpt lat="44.74106" lon="5.11659">
        <ele>357</ele>
        <time>2008-09-27T19:24:31Z</time>
      </trkpt>
      <trkpt lat="44.74161" lon="5.11693">
        <ele>361</ele>
        <time>2008-09-27T19:24:31Z</time>
      </trkpt>
      <trkpt lat="44.74197" lon="5.11714">
        <ele>366</ele>
        <time>2008-09-27T19:24:31Z</time>
      </trkpt>
      <trkpt lat="44.7422" lon="5.11696">
        <ele>370</ele>
        <time>2008-09-27T19:24:31Z</time>
      </trkpt>
      <trkpt lat="44.74221" lon="5.11633">
        <ele>369</ele>
        <time>2008-09-27T19:24:31Z</time>
      </trkpt>
      <trkpt lat="44.74155" lon="5.11598">
        <ele>359</ele>
        <time>2008-09-27T19:24:31Z</time>
      </trkpt>
      <trkpt lat="44.7411" lon="5.11564">
        <ele>354</ele>
        <time>2008-09-27T19:24:31Z</time>
      </trkpt>
      <trkpt lat="44.74067" lon="5.11518">
        <ele>347</ele>
        <time>2008-09-27T19:24:31Z</time>
      </trkpt>
      <trkpt lat="44.7402" lon="5.11415">
        <ele>340</ele>
        <time>2008-09-27T19:24:31Z</time>
      </trkpt>
      <trkpt lat="44.73993" lon="5.11404">
        <ele>338</ele>
        <time>2008-09-27T19:24:31Z</time>
      </trkpt>
      <trkpt lat="44.73906" lon="5.11283">
        <ele>323</ele>
        <time>2008-09-27T19:24:31Z</time>
      </trkpt>
      <trkpt lat="44.73857" lon="5.11258">
        <ele>320</ele>
        <time>2008-09-27T19:24:31Z</time>
      </trkpt>
      <trkpt lat="44.7377" lon="5.11241">
        <ele>312</ele>
        <time>2008-09-27T19:24:31Z</time>
      </trkpt>
      <trkpt lat="44.73712" lon="5.11232">
        <ele>306</ele>
        <time>2008-09-27T19:24:31Z</time>
      </trkpt>
      <trkpt lat="44.73701" lon="5.112">
        <ele>304</ele>
        <time>2008-09-27T19:24:31Z</time>
      </trkpt>
      <trkpt lat="44.73608" lon="5.11167">
        <ele>305</ele>
        <time>2008-09-27T19:24:31Z</time>
      </trkpt>
      <trkpt lat="44.73514" lon="5.11124">
        <ele>303</ele>
        <time>2008-09-27T19:24:31Z</time>
      </trkpt>
      <trkpt lat="44.73387" lon="5.10982">
        <ele>289</ele>
        <time>2008-09-27T19:24:31Z</time>
      </trkpt>
      <trkpt lat="44.73268" lon="5.10885">
        <ele>286</ele>
        <time>2008-09-27T19:24:31Z</time>
      </trkpt>
      <trkpt lat="44.73136" lon="5.10765">
        <ele>280</ele>
        <time>2008-09-27T19:24:31Z</time>
      </trkpt>
      <trkpt lat="44.73061" lon="5.10723">
        <ele>280</ele>
        <time>2008-09-27T19:24:31Z</time>
      </trkpt>
      <trkpt lat="44.73031" lon="5.10659">
        <ele>276</ele>
        <time>2008-09-27T19:24:31Z</time>
      </trkpt>
      <trkpt lat="44.72991" lon="5.10619">
        <ele>271</ele>
        <time>2008-09-27T19:24:31Z</time>
      </trkpt>
      <trkpt lat="44.72956" lon="5.10585">
        <ele>268</ele>
        <time>2008-09-27T19:24:31Z</time>
      </trkpt>
      <trkpt lat="44.72932" lon="5.10477">
        <ele>263</ele>
        <time>2008-09-27T19:24:31Z</time>
      </trkpt>
      <trkpt lat="44.72889" lon="5.10399">
        <ele>262</ele>
        <time>2008-09-27T19:24:31Z</time>
      </trkpt>
      <trkpt lat="44.72843" lon="5.10349">
        <ele>261</ele>
        <time>2008-09-27T19:24:31Z</time>
      </trkpt>
      <trkpt lat="44.72783" lon="5.10204">
        <ele>250</ele>
        <time>2008-09-27T19:24:31Z</time>
      </trkpt>
      <trkpt lat="44.72756" lon="5.10228">
        <ele>254</ele>
        <time>2008-09-27T19:24:31Z</time>
      </trkpt>
      <trkpt lat="44.72692" lon="5.1037">
        <ele>254</ele>
        <time>2008-09-27T19:24:31Z</time>
      </trkpt>
      <trkpt lat="44.72646" lon="5.10497">
        <ele>242</ele>
        <time>2008-09-27T19:24:31Z</time>
      </trkpt>
      <trkpt lat="44.72643" lon="5.10598">
        <ele>238</ele>
        <time>2008-09-27T19:24:31Z</time>
      </trkpt>
      <trkpt lat="44.72604" lon="5.10644">
        <ele>235</ele>
        <time>2008-09-27T19:24:31Z</time>
      </trkpt>
      <trkpt lat="44.72504" lon="5.10689">
        <ele>233</ele>
        <time>2008-09-27T19:24:31Z</time>
      </trkpt>
      <trkpt lat="44.72396" lon="5.10744">
        <ele>239</ele>
        <time>2008-09-27T19:24:31Z</time>
      </trkpt>
      <trkpt lat="44.72395" lon="5.10788">
        <ele>243</ele>
        <time>2008-09-27T19:24:31Z</time>
      </trkpt>
      <trkpt lat="44.72422" lon="5.10884">
        <ele>252</ele>
        <time>2008-09-27T19:24:31Z</time>
      </trkpt>
      <trkpt lat="44.7243" lon="5.10919">
        <ele>254</ele>
        <time>2008-09-27T19:24:31Z</time>
      </trkpt>
      <trkpt lat="44.7238" lon="5.10939">
        <ele>261</ele>
        <time>2008-09-27T19:24:31Z</time>
      </trkpt>
      <trkpt lat="44.72341" lon="5.1099">
        <ele>265</ele>
        <time>2008-09-27T19:24:31Z</time>
      </trkpt>
      <trkpt lat="44.72337" lon="5.11063">
        <ele>274</ele>
        <time>2008-09-27T19:24:31Z</time>
      </trkpt>
      <trkpt lat="44.72341" lon="5.11177">
        <ele>282</ele>
        <time>2008-09-27T19:24:31Z</time>
      </trkpt>
      <trkpt lat="44.72298" lon="5.11276">
        <ele>286</ele>
        <time>2008-09-27T19:24:31Z</time>
      </trkpt>
      <trkpt lat="44.72285" lon="5.11338">
        <ele>297</ele>
        <time>2008-09-27T19:24:31Z</time>
      </trkpt>
      <trkpt lat="44.7237" lon="5.11424">
        <ele>317</ele>
        <time>2008-09-27T19:24:31Z</time>
      </trkpt>
      <trkpt lat="44.72456" lon="5.11507">
        <ele>325</ele>
        <time>2008-09-27T19:24:31Z</time>
      </trkpt>
      <trkpt lat="44.72393" lon="5.1152">
        <ele>330</ele>
        <time>2008-09-27T19:24:31Z</time>
      </trkpt>
      <trkpt lat="44.72333" lon="5.11568">
        <ele>342</ele>
        <time>2008-09-27T19:24:31Z</time>
      </trkpt>
      <trkpt lat="44.72307" lon="5.11607">
        <ele>349</ele>
        <time>2008-09-27T19:24:31Z</time>
      </trkpt>
      <trkpt lat="44.72302" lon="5.11648">
        <ele>354</ele>
        <time>2008-09-27T19:24:31Z</time>
      </trkpt>
      <trkpt lat="44.72293" lon="5.11723">
        <ele>360</ele>
        <time>2008-09-27T19:24:31Z</time>
      </trkpt>
      <trkpt lat="44.72274" lon="5.11672">
        <ele>363</ele>
        <time>2008-09-27T19:24:31Z</time>
      </trkpt>
      <trkpt lat="44.72229" lon="5.11657">
        <ele>367</ele>
        <time>2008-09-27T19:24:31Z</time>
      </trkpt>
      <trkpt lat="44.72205" lon="5.1165">
        <ele>366</ele>
        <time>2008-09-27T19:24:31Z</time>
      </trkpt>
      <trkpt lat="44.72181" lon="5.11623">
        <ele>359</ele>
        <time>2008-09-27T19:24:31Z</time>
      </trkpt>
      <trkpt lat="44.72123" lon="5.11614">
        <ele>357</ele>
        <time>2008-09-27T19:24:31Z</time>
      </trkpt>
      <trkpt lat="44.72053" lon="5.11601">
        <ele>355</ele>
        <time>2008-09-27T19:24:31Z</time>
      </trkpt>
      <trkpt lat="44.71969" lon="5.11565">
        <ele>348</ele>
        <time>2008-09-27T19:24:31Z</time>
      </trkpt>
      <trkpt lat="44.71904" lon="5.11543">
        <ele>340</ele>
        <time>2008-09-27T19:24:31Z</time>
      </trkpt>
      <trkpt lat="44.71848" lon="5.11537">
        <ele>339</ele>
        <time>2008-09-27T19:24:31Z</time>
      </trkpt>
      <trkpt lat="44.71792" lon="5.1148">
        <ele>328</ele>
        <time>2008-09-27T19:24:31Z</time>
      </trkpt>
      <trkpt lat="44.71742" lon="5.11444">
        <ele>327</ele>
        <time>2008-09-27T19:24:31Z</time>
      </trkpt>
      <trkpt lat="44.7171" lon="5.11448">
        <ele>329</ele>
        <time>2008-09-27T19:24:31Z</time>
      </trkpt>
      <trkpt lat="44.71668" lon="5.11273">
        <ele>323</ele>
        <time>2008-09-27T19:24:31Z</time>
      </trkpt>
      <trkpt lat="44.71633" lon="5.11202">
        <ele>323</ele>
        <time>2008-09-27T19:24:31Z</time>
      </trkpt>
      <trkpt lat="44.7159" lon="5.11152">
        <ele>321</ele>
        <time>2008-09-27T19:24:31Z</time>
      </trkpt>
      <trkpt lat="44.71547" lon="5.11159">
        <ele>319</ele>
        <time>2008-09-27T19:24:31Z</time>
      </trkpt>
      <trkpt lat="44.71508" lon="5.11183">
        <ele>316</ele>
        <time>2008-09-27T19:24:31Z</time>
      </trkpt>
      <trkpt lat="44.71481" lon="5.11172">
        <ele>312</ele>
        <time>2008-09-27T19:24:31Z</time>
      </trkpt>
      <trkpt lat="44.71462" lon="5.11121">
        <ele>306</ele>
        <time>2008-09-27T19:24:31Z</time>
      </trkpt>
      <trkpt lat="44.71417" lon="5.11046">
        <ele>301</ele>
        <time>2008-09-27T19:24:31Z</time>
      </trkpt>
      <trkpt lat="44.71371" lon="5.11075">
        <ele>299</ele>
        <time>2008-09-27T19:24:31Z</time>
      </trkpt>
      <trkpt lat="44.71309" lon="5.11116">
        <ele>289</ele>
        <time>2008-09-27T19:24:31Z</time>
      </trkpt>
      <trkpt lat="44.71242" lon="5.1111">
        <ele>282</ele>
        <time>2008-09-27T19:24:31Z</time>
      </trkpt>
      <trkpt lat="44.71197" lon="5.11101">
        <ele>280</ele>
        <time>2008-09-27T19:24:31Z</time>
      </trkpt>
      <trkpt lat="44.71148" lon="5.11086">
        <ele>278</ele>
        <time>2008-09-27T19:24:31Z</time>
      </trkpt>
      <trkpt lat="44.71121" lon="5.11082">
        <ele>277</ele>
        <time>2008-09-27T19:24:31Z</time>
      </trkpt>
      <trkpt lat="44.71107" lon="5.11034">
        <ele>283</ele>
        <time>2008-09-27T19:24:31Z</time>
      </trkpt>
      <trkpt lat="44.71114" lon="5.10933">
        <ele>290</ele>
        <time>2008-09-27T19:24:31Z</time>
      </trkpt>
      <trkpt lat="44.71098" lon="5.1085">
        <ele>279</ele>
        <time>2008-09-27T19:24:31Z</time>
      </trkpt>
      <trkpt lat="44.71099" lon="5.10809">
        <ele>276</ele>
        <time>2008-09-27T19:24:31Z</time>
      </trkpt>
      <trkpt lat="44.71078" lon="5.10758">
        <ele>270</ele>
        <time>2008-09-27T19:24:31Z</time>
      </trkpt>
      <trkpt lat="44.71098" lon="5.10683">
        <ele>269</ele>
        <time>2008-09-27T19:24:31Z</time>
      </trkpt>
      <trkpt lat="44.71113" lon="5.10608">
        <ele>268</ele>
        <time>2008-09-27T19:24:31Z</time>
      </trkpt>
      <trkpt lat="44.71096" lon="5.10557">
        <ele>263</ele>
        <time>2008-09-27T19:24:31Z</time>
      </trkpt>
      <trkpt lat="44.71109" lon="5.10418">
        <ele>262</ele>
        <time>2008-09-27T19:24:31Z</time>
      </trkpt>
      <trkpt lat="44.71036" lon="5.10371">
        <ele>258</ele>
        <time>2008-09-27T19:24:31Z</time>
      </trkpt>
      <trkpt lat="44.7101" lon="5.10306">
        <ele>258</ele>
        <time>2008-09-27T19:24:31Z</time>
      </trkpt>
      <trkpt lat="44.71013" lon="5.10212">
        <ele>259</ele>
        <time>2008-09-27T19:24:31Z</time>
      </trkpt>
      <trkpt lat="44.70986" lon="5.10122">
        <ele>249</ele>
        <time>2008-09-27T19:24:31Z</time>
      </trkpt>
      <trkpt lat="44.71014" lon="5.09972">
        <ele>239</ele>
        <time>2008-09-27T19:24:31Z</time>
      </trkpt>
      <trkpt lat="44.71019" lon="5.09773">
        <ele>229</ele>
        <time>2008-09-27T19:24:31Z</time>
      </trkpt>
      <trkpt lat="44.71066" lon="5.0959">
        <ele>231</ele>
        <time>2008-09-27T19:24:31Z</time>
      </trkpt>
      <trkpt lat="44.71051" lon="5.09488">
        <ele>227</ele>
        <time>2008-09-27T19:24:31Z</time>
      </trkpt>
      <trkpt lat="44.71003" lon="5.09419">
        <ele>223</ele>
        <time>2008-09-27T19:24:31Z</time>
      </trkpt>
      <trkpt lat="44.70847" lon="5.09358">
        <ele>215</ele>
        <time>2008-09-27T19:24:31Z</time>
      </trkpt>
      <trkpt lat="44.70876" lon="5.09277">
        <ele>216</ele>
        <time>2008-09-27T19:24:31Z</time>
      </trkpt>
      <trkpt lat="44.70929" lon="5.09157">
        <ele>217</ele>
        <time>2008-09-27T19:24:31Z</time>
      </trkpt>
      <trkpt lat="44.7098" lon="5.09099">
        <ele>218</ele>
        <time>2008-09-27T19:24:31Z</time>
      </trkpt>
      <trkpt lat="44.71037" lon="5.09071">
        <ele>218</ele>
        <time>2008-09-27T19:24:31Z</time>
      </trkpt>
      <trkpt lat="44.71084" lon="5.08997">
        <ele>217</ele>
        <time>2008-09-27T19:24:31Z</time>
      </trkpt>
      <trkpt lat="44.71142" lon="5.08899">
        <ele>217</ele>
        <time>2008-09-27T19:24:31Z</time>
      </trkpt>
      <trkpt lat="44.71179" lon="5.08791">
        <ele>215</ele>
        <time>2008-09-27T19:24:31Z</time>
      </trkpt>
      <trkpt lat="44.71229" lon="5.08569">
        <ele>213</ele>
        <time>2008-09-27T19:24:31Z</time>
      </trkpt>
      <trkpt lat="44.7125" lon="5.0846">
        <ele>217</ele>
        <time>2008-09-27T19:24:31Z</time>
      </trkpt>
      <trkpt lat="44.71289" lon="5.0843">
        <ele>223</ele>
        <time>2008-09-27T19:24:31Z</time>
      </trkpt>
      <trkpt lat="44.71377" lon="5.0834">
        <ele>238</ele>
        <time>2008-09-27T19:24:31Z</time>
      </trkpt>
      <trkpt lat="44.71482" lon="5.0826">
        <ele>247</ele>
        <time>2008-09-27T19:24:31Z</time>
      </trkpt>
      <trkpt lat="44.71626" lon="5.08264">
        <ele>257</ele>
        <time>2008-09-27T19:24:31Z</time>
      </trkpt>
      <trkpt lat="44.71729" lon="5.08297">
        <ele>265</ele>
        <time>2008-09-27T19:24:31Z</time>
      </trkpt>
      <trkpt lat="44.7185" lon="5.08312">
        <ele>272</ele>
        <time>2008-09-27T19:24:31Z</time>
      </trkpt>
      <trkpt lat="44.71955" lon="5.08333">
        <ele>279</ele>
        <time>2008-09-27T19:24:31Z</time>
      </trkpt>
      <trkpt lat="44.72069" lon="5.08364">
        <ele>282</ele>
        <time>2008-09-27T19:24:31Z</time>
      </trkpt>
      <trkpt lat="44.7212" lon="5.08376">
        <ele>284</ele>
        <time>2008-09-27T19:24:31Z</time>
      </trkpt>
      <trkpt lat="44.72159" lon="5.08378">
        <ele>286</ele>
        <time>2008-09-27T19:24:31Z</time>
      </trkpt>
      <trkpt lat="44.72198" lon="5.0843">
        <ele>295</ele>
        <time>2008-09-27T19:24:31Z</time>
      </trkpt>
      <trkpt lat="44.7224" lon="5.08461">
        <ele>309</ele>
        <time>2008-09-27T19:24:31Z</time>
      </trkpt>
      <trkpt lat="44.72294" lon="5.08473">
        <ele>318</ele>
        <time>2008-09-27T19:24:31Z</time>
      </trkpt>
      <trkpt lat="44.72344" lon="5.08507">
        <ele>323</ele>
        <time>2008-09-27T19:24:31Z</time>
      </trkpt>
      <trkpt lat="44.72371" lon="5.0854">
        <ele>328</ele>
        <time>2008-09-27T19:24:31Z</time>
      </trkpt>
      <trkpt lat="44.72398" lon="5.08535">
        <ele>331</ele>
        <time>2008-09-27T19:24:31Z</time>
      </trkpt>
      <trkpt lat="44.72429" lon="5.08552">
        <ele>341</ele>
        <time>2008-09-27T19:24:31Z</time>
      </trkpt>
      <trkpt lat="44.7246" lon="5.08566">
        <ele>351</ele>
        <time>2008-09-27T19:24:31Z</time>
      </trkpt>
      <trkpt lat="44.72487" lon="5.08565">
        <ele>358</ele>
        <time>2008-09-27T19:24:31Z</time>
      </trkpt>
      <trkpt lat="44.72526" lon="5.08541">
        <ele>360</ele>
        <time>2008-09-27T19:24:31Z</time>
      </trkpt>
      <trkpt lat="44.72565" lon="5.08518">
        <ele>361</ele>
        <time>2008-09-27T19:24:31Z</time>
      </trkpt>
      <trkpt lat="44.7261" lon="5.08489">
        <ele>362</ele>
        <time>2008-09-27T19:24:31Z</time>
      </trkpt>
      <trkpt lat="44.72648" lon="5.0843">
        <ele>355</ele>
        <time>2008-09-27T19:24:31Z</time>
      </trkpt>
      <trkpt lat="44.7268" lon="5.08394">
        <ele>362</ele>
        <time>2008-09-27T19:24:31Z</time>
      </trkpt>
      <trkpt lat="44.7272" lon="5.08323">
        <ele>370</ele>
        <time>2008-09-27T19:24:31Z</time>
      </trkpt>
      <trkpt lat="44.72745" lon="5.08315">
        <ele>371</ele>
        <time>2008-09-27T19:24:31Z</time>
      </trkpt>
      <trkpt lat="44.72779" lon="5.08317">
        <ele>369</ele>
        <time>2008-09-27T19:24:31Z</time>
      </trkpt>
      <trkpt lat="44.72789" lon="5.08267">
        <ele>366</ele>
        <time>2008-09-27T19:24:31Z</time>
      </trkpt>
      <trkpt lat="44.72771" lon="5.08181">
        <ele>378</ele>
        <time>2008-09-27T19:24:31Z</time>
      </trkpt>
      <trkpt lat="44.72767" lon="5.08146">
        <ele>387</ele>
        <time>2008-09-27T19:24:31Z</time>
      </trkpt>
      <trkpt lat="44.72816" lon="5.08076">
        <ele>389</ele>
        <time>2008-09-27T19:24:31Z</time>
      </trkpt>
      <trkpt lat="44.72755" lon="5.08022">
        <ele>397</ele>
        <time>2008-09-27T19:24:31Z</time>
      </trkpt>
      <trkpt lat="44.72678" lon="5.07927">
        <ele>398</ele>
        <time>2008-09-27T19:24:31Z</time>
      </trkpt>
      <trkpt lat="44.72606" lon="5.07851">
        <ele>398</ele>
        <time>2008-09-27T19:24:31Z</time>
      </trkpt>
      <trkpt lat="44.7256" lon="5.07799">
        <ele>397</ele>
        <time>2008-09-27T19:24:31Z</time>
      </trkpt>
      <trkpt lat="44.72534" lon="5.07734">
        <ele>385</ele>
        <time>2008-09-27T19:24:31Z</time>
      </trkpt>
      <trkpt lat="44.72484" lon="5.07709">
        <ele>390</ele>
        <time>2008-09-27T19:24:31Z</time>
      </trkpt>
      <trkpt lat="44.72463" lon="5.07702">
        <ele>391</ele>
        <time>2008-09-27T19:24:31Z</time>
      </trkpt>
      <trkpt lat="44.7248" lon="5.07652">
        <ele>382</ele>
        <time>2008-09-27T19:24:31Z</time>
      </trkpt>
      <trkpt lat="44.72513" lon="5.076">
        <ele>373</ele>
        <time>2008-09-27T19:24:31Z</time>
      </trkpt>
      <trkpt lat="44.72549" lon="5.07526">
        <ele>368</ele>
        <time>2008-09-27T19:24:31Z</time>
      </trkpt>
      <trkpt lat="44.72558" lon="5.07441">
        <ele>357</ele>
        <time>2008-09-27T19:24:31Z</time>
      </trkpt>
      <trkpt lat="44.72555" lon="5.07375">
        <ele>347</ele>
        <time>2008-09-27T19:24:31Z</time>
      </trkpt>
      <trkpt lat="44.72542" lon="5.07349">
        <ele>347</ele>
        <time>2008-09-27T19:24:31Z</time>
      </trkpt>
      <trkpt lat="44.7256" lon="5.07321">
        <ele>338</ele>
        <time>2008-09-27T19:24:31Z</time>
      </trkpt>
      <trkpt lat="44.72579" lon="5.07255">
        <ele>329</ele>
        <time>2008-09-27T19:24:31Z</time>
      </trkpt>
      <trkpt lat="44.72575" lon="5.07201">
        <ele>328</ele>
        <time>2008-09-27T19:24:31Z</time>
      </trkpt>
      <trkpt lat="44.72585" lon="5.07163">
        <ele>322</ele>
        <time>2008-09-27T19:24:31Z</time>
      </trkpt>
      <trkpt lat="44.72596" lon="5.0715">
        <ele>317</ele>
        <time>2008-09-27T19:24:31Z</time>
      </trkpt>
      <trkpt lat="44.72568" lon="5.07098">
        <ele>312</ele>
        <time>2008-09-27T19:24:31Z</time>
      </trkpt>
      <trkpt lat="44.72536" lon="5.07058">
        <ele>309</ele>
        <time>2008-09-27T19:24:31Z</time>
      </trkpt>
      <trkpt lat="44.72549" lon="5.07011">
        <ele>296</ele>
        <time>2008-09-27T19:24:31Z</time>
      </trkpt>
      <trkpt lat="44.72561" lon="5.06988">
        <ele>290</ele>
        <time>2008-09-27T19:24:31Z</time>
      </trkpt>
      <trkpt lat="44.72605" lon="5.06986">
        <ele>283</ele>
        <time>2008-09-27T19:24:31Z</time>
      </trkpt>
      <trkpt lat="44.72631" lon="5.06949">
        <ele>274</ele>
        <time>2008-09-27T19:24:31Z</time>
      </trkpt>
      <trkpt lat="44.72647" lon="5.06909">
        <ele>268</ele>
        <time>2008-09-27T19:24:31Z</time>
      </trkpt>
      <trkpt lat="44.726" lon="5.06859">
        <ele>269</ele>
        <time>2008-09-27T19:24:31Z</time>
      </trkpt>
      <trkpt lat="44.72595" lon="5.06817">
        <ele>265</ele>
        <time>2008-09-27T19:24:31Z</time>
      </trkpt>
      <trkpt lat="44.72604" lon="5.06765">
        <ele>258</ele>
        <time>2008-09-27T19:24:31Z</time>
      </trkpt>
      <trkpt lat="44.72582" lon="5.06745">
        <ele>256</ele>
        <time>2008-09-27T19:24:31Z</time>
      </trkpt>
      <trkpt lat="44.72567" lon="5.06703">
        <ele>250</ele>
        <time>2008-09-27T19:24:31Z</time>
      </trkpt>
      <trkpt lat="44.72534" lon="5.06683">
        <ele>247</ele>
        <time>2008-09-27T19:24:31Z</time>
      </trkpt>
      <trkpt lat="44.72487" lon="5.06658">
        <ele>244</ele>
        <time>2008-09-27T19:24:31Z</time>
      </trkpt>
      <trkpt lat="44.724" lon="5.06616">
        <ele>238</ele>
        <time>2008-09-27T19:24:31Z</time>
      </trkpt>
      <trkpt lat="44.72336" lon="5.06569">
        <ele>234</ele>
        <time>2008-09-27T19:24:31Z</time>
      </trkpt>
      <trkpt lat="44.72252" lon="5.06527">
        <ele>232</ele>
        <time>2008-09-27T19:24:31Z</time>
      </trkpt>
      <trkpt lat="44.72184" lon="5.06457">
        <ele>227</ele>
        <time>2008-09-27T19:24:31Z</time>
      </trkpt>
      <trkpt lat="44.72076" lon="5.06361">
        <ele>222</ele>
        <time>2008-09-27T19:24:31Z</time>
      </trkpt>
      <trkpt lat="44.72063" lon="5.06344">
        <ele>221</ele>
        <time>2008-09-27T19:24:31Z</time>
      </trkpt>
      <trkpt lat="44.72056" lon="5.062">
        <ele>214</ele>
        <time>2008-09-27T19:24:31Z</time>
      </trkpt>
      <trkpt lat="44.72069" lon="5.06173">
        <ele>215</ele>
        <time>2008-09-27T19:24:31Z</time>
      </trkpt>
      <trkpt lat="44.72149" lon="5.06235">
        <ele>218</ele>
        <time>2008-09-27T19:24:31Z</time>
      </trkpt>
      <trkpt lat="44.723" lon="5.06312">
        <ele>225</ele>
        <time>2008-09-27T19:24:31Z</time>
      </trkpt>
      <trkpt lat="44.72379" lon="5.06303">
        <ele>231</ele>
        <time>2008-09-27T19:24:31Z</time>
      </trkpt>
      <trkpt lat="44.7244" lon="5.0629">
        <ele>233</ele>
        <time>2008-09-27T19:24:31Z</time>
      </trkpt>
      <trkpt lat="44.72501" lon="5.06287">
        <ele>235</ele>
        <time>2008-09-27T19:24:31Z</time>
      </trkpt>
      <trkpt lat="44.72559" lon="5.06308">
        <ele>234</ele>
        <time>2008-09-27T19:24:31Z</time>
      </trkpt>
      <trkpt lat="44.72646" lon="5.06328">
        <ele>234</ele>
        <time>2008-09-27T19:24:31Z</time>
      </trkpt>
      <trkpt lat="44.72662" lon="5.06323">
        <ele>235</ele>
        <time>2008-09-27T19:24:31Z</time>
      </trkpt>
      <trkpt lat="44.72687" lon="5.06207">
        <ele>251</ele>
        <time>2008-09-27T19:24:31Z</time>
      </trkpt>
      <trkpt lat="44.72709" lon="5.06167">
        <ele>258</ele>
        <time>2008-09-27T19:24:31Z</time>
      </trkpt>
      <trkpt lat="44.72687" lon="5.0615">
        <ele>259</ele>
        <time>2008-09-27T19:24:31Z</time>
      </trkpt>
      <trkpt lat="44.72665" lon="5.06122">
        <ele>260</ele>
        <time>2008-09-27T19:24:31Z</time>
      </trkpt>
      <trkpt lat="44.727" lon="5.06116">
        <ele>264</ele>
        <time>2008-09-27T19:24:31Z</time>
      </trkpt>
      <trkpt lat="44.72751" lon="5.06106">
        <ele>265</ele>
        <time>2008-09-27T19:24:31Z</time>
      </trkpt>
      <trkpt lat="44.72797" lon="5.06075">
        <ele>269</ele>
        <time>2008-09-27T19:24:31Z</time>
      </trkpt>
      <trkpt lat="44.72772" lon="5.06069">
        <ele>271</ele>
        <time>2008-09-27T19:24:31Z</time>
      </trkpt>
      <trkpt lat="44.72773" lon="5.06047">
        <ele>276</ele>
        <time>2008-09-27T19:24:31Z</time>
      </trkpt>
      <trkpt lat="44.72811" lon="5.06008">
        <ele>281</ele>
        <time>2008-09-27T19:24:31Z</time>
      </trkpt>
      <trkpt lat="44.72869" lon="5.05951">
        <ele>287</ele>
        <time>2008-09-27T19:24:31Z</time>
      </trkpt>
      <trkpt lat="44.72929" lon="5.05888">
        <ele>298</ele>
        <time>2008-09-27T19:24:31Z</time>
      </trkpt>
      <trkpt lat="44.72993" lon="5.05862">
        <ele>305</ele>
        <time>2008-09-27T19:24:31Z</time>
      </trkpt>
      <trkpt lat="44.73063" lon="5.0585">
        <ele>316</ele>
        <time>2008-09-27T19:24:31Z</time>
      </trkpt>
      <trkpt lat="44.73137" lon="5.0586">
        <ele>328</ele>
        <time>2008-09-27T19:24:31Z</time>
      </trkpt>
      <trkpt lat="44.73187" lon="5.0591">
        <ele>336</ele>
        <time>2008-09-27T19:24:31Z</time>
      </trkpt>
      <trkpt lat="44.73212" lon="5.05927">
        <ele>339</ele>
        <time>2008-09-27T19:24:31Z</time>
      </trkpt>
      <trkpt lat="44.73233" lon="5.05921">
        <ele>340</ele>
      </trkpt>
      <trkpt lat="44.73241" lon="5.05915">
        <ele>339</ele>
        <time>2008-09-27T19:24:31Z</time>
      </trkpt>
      <trkpt lat="44.73241" lon="5.05903">
        <ele>338</ele>
      </trkpt>
      <trkpt lat="44.73218" lon="5.05837">
        <ele>332</ele>
        <time>2008-09-27T19:24:31Z</time>
      </trkpt>
      <trkpt lat="44.73193" lon="5.05728">
        <ele>334</ele>
        <time>2008-09-27T19:24:31Z</time>
      </trkpt>
      <trkpt lat="44.73158" lon="5.05642">
        <ele>334</ele>
        <time>2008-09-27T19:24:31Z</time>
      </trkpt>
      <trkpt lat="44.73122" lon="5.05539">
        <ele>322</ele>
        <time>2008-09-27T19:24:31Z</time>
      </trkpt>
      <trkpt lat="44.73084" lon="5.05447">
        <ele>309</ele>
        <time>2008-09-27T19:24:31Z</time>
      </trkpt>
      <trkpt lat="44.73055" lon="5.05337">
        <ele>293</ele>
        <time>2008-09-27T19:24:31Z</time>
      </trkpt>
      <trkpt lat="44.73062" lon="5.05317">
        <ele>291</ele>
        <time>2008-09-27T19:24:31Z</time>
      </trkpt>
      <trkpt lat="44.73103" lon="5.05221">
        <ele>285</ele>
        <time>2008-09-27T19:24:31Z</time>
      </trkpt>
      <trkpt lat="44.73117" lon="5.05168">
        <ele>285</ele>
        <time>2008-09-27T19:24:31Z</time>
      </trkpt>
      <trkpt lat="44.73128" lon="5.05078">
        <ele>287</ele>
        <time>2008-09-27T19:24:31Z</time>
      </trkpt>
      <trkpt lat="44.73117" lon="5.05036">
        <ele>288</ele>
        <time>2008-09-27T19:24:31Z</time>
      </trkpt>
      <trkpt lat="44.7311" lon="5.04974">
        <ele>284</ele>
        <time>2008-09-27T19:24:31Z</time>
      </trkpt>
      <trkpt lat="44.7313" lon="5.04944">
        <ele>282</ele>
        <time>2008-09-27T19:24:31Z</time>
      </trkpt>
      <trkpt lat="44.73141" lon="5.0492">
        <ele>279</ele>
        <time>2008-09-27T19:24:31Z</time>
      </trkpt>
      <trkpt lat="44.73144" lon="5.04878">
        <ele>275</ele>
        <time>2008-09-27T19:24:31Z</time>
      </trkpt>
      <trkpt lat="44.73142" lon="5.04865">
        <ele>274</ele>
        <time>2008-09-27T19:24:31Z</time>
      </trkpt>
      <trkpt lat="44.73124" lon="5.04846">
        <ele>275</ele>
        <time>2008-09-27T19:24:31Z</time>
      </trkpt>
      <trkpt lat="44.7312" lon="5.04829">
        <ele>273</ele>
        <time>2008-09-27T19:24:31Z</time>
      </trkpt>
      <trkpt lat="44.73127" lon="5.04786">
        <ele>268</ele>
        <time>2008-09-27T19:24:31Z</time>
      </trkpt>
      <trkpt lat="44.73137" lon="5.04776">
        <ele>266</ele>
        <time>2008-09-27T19:24:31Z</time>
      </trkpt>
      <trkpt lat="44.73148" lon="5.04767">
        <ele>264</ele>
        <time>2008-09-27T19:24:31Z</time>
      </trkpt>
      <trkpt lat="44.73145" lon="5.04693">
        <ele>261</ele>
        <time>2008-09-27T19:24:31Z</time>
      </trkpt>
      <trkpt lat="44.73137" lon="5.0466">
        <ele>261</ele>
        <time>2008-09-27T19:24:31Z</time>
      </trkpt>
      <trkpt lat="44.7309" lon="5.04576">
        <ele>256</ele>
        <time>2008-09-27T19:24:31Z</time>
      </trkpt>
      <trkpt lat="44.73062" lon="5.04518">
        <ele>247</ele>
        <time>2008-09-27T19:24:31Z</time>
      </trkpt>
      <trkpt lat="44.73006" lon="5.04443">
        <ele>234</ele>
        <time>2008-09-27T19:24:31Z</time>
      </trkpt>
      <trkpt lat="44.72969" lon="5.04394">
        <ele>229</ele>
        <time>2008-09-27T19:24:31Z</time>
      </trkpt>
      <trkpt lat="44.72938" lon="5.04332">
        <ele>226</ele>
        <time>2008-09-27T19:24:31Z</time>
      </trkpt>
      <trkpt lat="44.72889" lon="5.04314">
        <ele>226</ele>
        <time>2008-09-27T19:24:31Z</time>
      </trkpt>
      <trkpt lat="44.72792" lon="5.04253">
        <ele>226</ele>
        <time>2008-09-27T19:24:31Z</time>
      </trkpt>
      <trkpt lat="44.72736" lon="5.04218">
        <ele>225</ele>
        <time>2008-09-27T19:24:31Z</time>
      </trkpt>
      <trkpt lat="44.72702" lon="5.04147">
        <ele>222</ele>
        <time>2008-09-27T19:24:31Z</time>
      </trkpt>
      <trkpt lat="44.72659" lon="5.04085">
        <ele>218</ele>
        <time>2008-09-27T19:24:31Z</time>
      </trkpt>
      <trkpt lat="44.72647" lon="5.04067">
        <ele>217</ele>
        <time>2008-09-27T19:24:31Z</time>
      </trkpt>
      <trkpt lat="44.72629" lon="5.04012">
        <ele>212</ele>
        <time>2008-09-27T19:24:31Z</time>
      </trkpt>
      <trkpt lat="44.72543" lon="5.039">
        <ele>203</ele>
        <time>2008-09-27T19:24:31Z</time>
      </trkpt>
      <trkpt lat="44.72533" lon="5.03861">
        <ele>202</ele>
      </trkpt>
      <trkpt lat="44.72523" lon="5.03844">
        <ele>201</ele>
        <time>2008-09-27T19:24:31Z</time>
      </trkpt>
      <trkpt lat="44.72503" lon="5.03828">
        <ele>200</ele>
        <time>2008-09-27T19:24:31Z</time>
      </trkpt>
      <trkpt lat="44.72495" lon="5.03825">
        <ele>200</ele>
        <time>2008-09-27T19:24:31Z</time>
      </trkpt>
      <trkpt lat="44.72484" lon="5.03828">
        <ele>200</ele>
        <time>2008-09-27T19:24:31Z</time>
      </trkpt>
      <trkpt lat="44.72474" lon="5.03829">
        <ele>199</ele>
        <time>2008-09-27T19:24:31Z</time>
      </trkpt>
      <trkpt lat="44.72461" lon="5.0383">
        <ele>199</ele>
        <time>2008-09-27T19:24:31Z</time>
      </trkpt>
      <trkpt lat="44.72455" lon="5.03828">
        <ele>199</ele>
        <time>2008-09-27T19:24:31Z</time>
      </trkpt>
      <trkpt lat="44.72292" lon="5.03659">
        <ele>192</ele>
        <time>2008-09-27T19:24:31Z</time>
      </trkpt>
      <trkpt lat="44.72289" lon="5.03651">
        <ele>192</ele>
        <time>2008-09-27T19:24:31Z</time>
      </trkpt>
      <trkpt lat="44.72286" lon="5.03639">
        <ele>191</ele>
      </trkpt>
      <trkpt lat="44.72287" lon="5.03625">
        <ele>191</ele>
      </trkpt>
      <trkpt lat="44.72345" lon="5.03508">
        <ele>190</ele>
      </trkpt>
      <trkpt lat="44.72377" lon="5.03433">
        <ele>190</ele>
      </trkpt>
      <trkpt lat="44.7238" lon="5.03422">
        <ele>190</ele>
      </trkpt>
      <trkpt lat="44.72382" lon="5.03411">
        <ele>190</ele>
      </trkpt>
      <trkpt lat="44.72372" lon="5.0338">
        <ele>189</ele>
      </trkpt>
      <trkpt lat="44.72372" lon="5.03365">
        <ele>189</ele>
      </trkpt>
      <trkpt lat="44.72373" lon="5.03341">
        <ele>189</ele>
      </trkpt>
      <trkpt lat="44.72371" lon="5.03326">
        <ele>188</ele>
      </trkpt>
      <trkpt lat="44.72368" lon="5.03293">
        <ele>188</ele>
      </trkpt>
      <trkpt lat="44.72368" lon="5.03283">
        <ele>188</ele>
      </trkpt>
      <trkpt lat="44.72376" lon="5.03264">
        <ele>187</ele>
      </trkpt>
      <trkpt lat="44.72376" lon="5.03256">
        <ele>187</ele>
      </trkpt>
      <trkpt lat="44.7237" lon="5.03218">
        <ele>187</ele>
      </trkpt>
      <trkpt lat="44.72366" lon="5.03209">
        <ele>187</ele>
      </trkpt>
      <trkpt lat="44.72367" lon="5.03198">
        <ele>187</ele>
      </trkpt>
      <trkpt lat="44.7247" lon="5.02957">
        <ele>185</ele>
        <time>2008-09-27T19:24:31Z</time>
      </trkpt>
      <trkpt lat="44.72552" lon="5.02762">
        <ele>185</ele>
      </trkpt>
      <trkpt lat="44.72605" lon="5.02632">
        <ele>185</ele>
      </trkpt>
      <trkpt lat="44.72621" lon="5.026">
        <ele>184</ele>
      </trkpt>
      <trkpt lat="44.72628" lon="5.0258">
        <ele>184</ele>
      </trkpt>
      <trkpt lat="44.72635" lon="5.02546">
        <ele>184</ele>
      </trkpt>
      <trkpt lat="44.72636" lon="5.02505">
        <ele>184</ele>
        <time>2008-09-27T19:24:31Z</time>
      </trkpt>
      <trkpt lat="44.72637" lon="5.02458">
        <ele>184</ele>
        <time>2008-09-27T19:24:31Z</time>
      </trkpt>
      <trkpt lat="44.7265" lon="5.0242">
        <ele>184</ele>
        <time>2008-09-27T19:24:31Z</time>
      </trkpt>
      <trkpt lat="44.7266" lon="5.0241">
        <ele>184</ele>
      </trkpt>
      <trkpt lat="44.72677" lon="5.02339">
        <ele>183</ele>
      </trkpt>
      <trkpt lat="44.72714" lon="5.02239">
        <ele>183</ele>
      </trkpt>
      <trkpt lat="44.72738" lon="5.02167">
        <ele>184</ele>
      </trkpt>
      <trkpt lat="44.72748" lon="5.02158">
        <ele>184</ele>
      </trkpt>
      <trkpt lat="44.72778" lon="5.02003">
        <ele>185</ele>
      </trkpt>
      <trkpt lat="44.72806" lon="5.01835">
        <ele>184</ele>
        <time>2008-09-27T19:24:31Z</time>
      </trkpt>
      <trkpt lat="44.72811" lon="5.01824">
        <ele>184</ele>
        <time>2008-09-27T19:24:31Z</time>
      </trkpt>
      <trkpt lat="44.72816" lon="5.01812">
        <ele>184</ele>
        <time>2008-09-27T19:24:31Z</time>
      </trkpt>
      <trkpt lat="44.72821" lon="5.01805">
        <ele>184</ele>
        <time>2008-09-27T19:24:31Z</time>
      </trkpt>
      <trkpt lat="44.72828" lon="5.01796">
        <ele>184</ele>
        <time>2008-09-27T19:24:31Z</time>
      </trkpt>
      <trkpt lat="44.72835" lon="5.01787">
        <ele>184</ele>
        <time>2008-09-27T19:24:31Z</time>
      </trkpt>
      <trkpt lat="44.72842" lon="5.0178">
        <ele>183</ele>
        <time>2008-09-27T19:24:31Z</time>
      </trkpt>
      <trkpt lat="44.7289" lon="5.01736">
        <ele>183</ele>
      </trkpt>
      <trkpt lat="44.73005" lon="5.01653">
        <ele>183</ele>
      </trkpt>
      <trkpt lat="44.7301" lon="5.01645">
        <ele>183</ele>
      </trkpt>
      <trkpt lat="44.73011" lon="5.0163">
        <ele>183</ele>
        <time>2008-09-27T19:24:31Z</time>
      </trkpt>
    </trkseg>
  </trk>
</gpx>